Location: Arrington
(35.8681°N, 86.7092°W)
Time: 12:30:07
(UTC+00:00)

Centaur D-1AR AC-36 - Pass Details

Date: 23 November 2019
Orbit: 551 x 36353 km, 21.9° (Epoch: 15 December)

Event Time Altitude Azimuth Distance (km) Brightness Sun altitude
Rises 23:50:16 0° 247° (WSW) 20,407 11.0 -15.1°
Reaches altitude 10° 00:26:17 10° 241° (WSW) 10,649 8.8 -22.2°
Maximum altitude 00:47:45 29° 190° (S) 2,916 5.0 -26.5°
Enters shadow 00:51:10 21° 149° (SSE) 2,446 4.3 -27.2°
